Time,TemperatureF,DewpointF,PressureIn,WindDirection,WindDirectionDegrees,WindSpeedMPH,WindSpeedGustMPH,Humidity,HourlyPrecipIn,Conditions,Clouds,dailyrainin,SoftwareType,DateUTC
2013-02-06 00:15:00,55.1,54.0,30.00,ESE,117,0.0,-999.0,95,-99.99,,,0.00,weatherlink.com 1.10,2013-02-06 05:15:00,
2013-02-06 00:29:00,55.2,54.0,30.00,ESE,117,0.0,-999.0,95,-99.99,,,0.00,weatherlink.com 1.10,2013-02-06 05:29:00,
2013-02-06 00:45:00,55.3,54.0,30.00,ESE,117,0.0,-999.0,95,-99.99,,,0.00,weatherlink.com 1.10,2013-02-06 05:45:00,
2013-02-06 01:00:00,55.1,54.0,30.00,ESE,117,0.0,-999.0,94,-99.99,,,0.00,weatherlink.com 1.10,2013-02-06 06:00:00,
2013-02-06 01:15:00,55.2,54.0,30.00,ESE,117,0.0,-999.0,94,-99.99,,,0.00,weatherlink.com 1.10,2013-02-06 06:15:00,
2013-02-06 01:29:00,55.1,54.0,29.99,ESE,117,0.0,-999.0,94,-99.99,,,0.00,weatherlink.com 1.10,2013-02-06 06:29:00,
2013-02-06 01:44:00,54.9,54.0,29.99,ESE,117,0.0,-999.0,95,-99.99,,,0.00,weatherlink.com 1.10,2013-02-06 06:44:00,
2013-02-06 02:00:00,54.9,54.0,29.99,ESE,117,0.0,-999.0,95,-99.99,,,0.00,weatherlink.com 1.10,2013-02-06 07:00:00,
2013-02-06 02:15:00,54.9,54.0,29.97,ESE,117,0.0,-999.0,96,-99.99,,,0.00,weatherlink.com 1.10,2013-02-06 07:15:00,
2013-02-06 02:30:00,54.8,54.0,29.97,ESE,117,0.0,-999.0,96,-99.99,,,0.00,weatherlink.com 1.10,2013-02-06 07:30:00,
2013-02-06 02:45:00,55.0,54.0,29.97,ESE,117,0.0,-999.0,96,-99.99,,,0.00,weatherlink.com 1.10,2013-02-06 07:45:00,
2013-02-06 03:00:00,55.1,54.0,29.97,ESE,117,0.0,-999.0,96,-99.99,,,0.00,weatherlink.com 1.10,2013-02-06 08:00:00,
2013-02-06 03:15:00,55.5,55.0,29.97,ESE,117,0.0,-999.0,97,-99.99,,,0.00,weatherlink.com 1.10,2013-02-06 08:15:00,
2013-02-06 03:30:00,55.6,55.0,29.97,ESE,116,0.0,-999.0,97,-99.99,,,0.00,weatherlink.com 1.10,2013-02-06 08:30:00,
2013-02-06 03:45:00,55.7,55.0,29.97,ESE,117,0.0,-999.0,97,-99.99,,,0.00,weatherlink.com 1.10,2013-02-06 08:45:00,
2013-02-06 04:00:00,55.7,55.0,29.98,ESE,117,0.0,-999.0,97,-99.99,,,0.00,weatherlink.com 1.10,2013-02-06 09:00:00,
2013-02-06 04:15:00,55.5,55.0,29.98,ESE,117,0.0,-999.0,97,-99.99,,,0.00,weatherlink.com 1.10,2013-02-06 09:15:00,
2013-02-06 04:30:00,55.2,54.0,29.99,ESE,117,0.0,-999.0,97,-99.99,,,0.00,weatherlink.com 1.10,2013-02-06 09:30:00,
2013-02-06 04:45:00,54.9,54.0,29.99,ESE,117,0.0,-999.0,97,-99.99,,,0.00,weatherlink.com 1.10,2013-02-06 09:45:00,
2013-02-06 05:00:00,54.5,54.0,29.99,ESE,117,0.0,-999.0,97,-99.99,,,0.00,weatherlink.com 1.10,2013-02-06 10:00:00,
2013-02-06 05:15:00,54.2,53.0,29.99,ESE,117,0.0,-999.0,97,-99.99,,,0.00,weatherlink.com 1.10,2013-02-06 10:15:00,
2013-02-06 05:30:00,53.9,53.0,29.99,ESE,117,0.0,-999.0,97,-99.99,,,0.00,weatherlink.com 1.10,2013-02-06 10:30:00,
2013-02-06 05:45:00,53.7,53.0,30.00,ESE,117,0.0,-999.0,97,-99.99,,,0.00,weatherlink.com 1.10,2013-02-06 10:45:00,
2013-02-06 06:00:00,53.6,53.0,30.00,ESE,116,0.0,-999.0,98,-99.99,,,0.00,weatherlink.com 1.10,2013-02-06 11:00:00,
2013-02-06 06:15:00,53.3,53.0,30.00,ESE,116,0.0,-999.0,97,-99.99,,,0.00,weatherlink.com 1.10,2013-02-06 11:15:00,
2013-02-06 06:30:00,53.8,53.0,30.01,ESE,116,0.0,-999.0,98,-99.99,,,0.00,weatherlink.com 1.10,2013-02-06 11:30:00,
2013-02-06 06:45:00,53.4,53.0,30.02,ESE,116,0.0,-999.0,98,-99.99,,,0.00,weatherlink.com 1.10,2013-02-06 11:45:00,
2013-02-06 07:00:00,53.6,53.0,30.02,ESE,117,0.0,-999.0,98,-99.99,,,0.00,weatherlink.com 1.10,2013-02-06 12:00:00,
2013-02-06 07:15:00,53.5,53.0,30.02,ESE,117,0.0,-999.0,98,-99.99,,,0.00,weatherlink.com 1.10,2013-02-06 12:15:00,
2013-02-06 07:30:00,53.8,53.0,30.02,ESE,117,0.0,-999.0,98,-99.99,,,0.00,weatherlink.com 1.10,2013-02-06 12:30:00,
2013-02-06 07:45:00,54.7,54.0,30.03,ESE,117,0.0,-999.0,98,-99.99,,,0.00,weatherlink.com 1.10,2013-02-06 12:45:00,
2013-02-06 08:00:00,55.9,55.0,30.03,ESE,117,0.0,-999.0,98,-99.99,,,0.00,weatherlink.com 1.10,2013-02-06 13:00:00,
2013-02-06 08:15:00,56.9,56.0,30.03,ESE,117,0.0,-999.0,98,-99.99,,,0.00,weatherlink.com 1.10,2013-02-06 13:15:00,
2013-02-06 08:30:00,60.4,60.0,30.04,ESE,117,0.0,-999.0,99,-99.99,,,0.00,weatherlink.com 1.10,2013-02-06 13:30:00,
2013-02-06 08:45:00,62.5,62.0,30.04,ESE,117,0.0,-999.0,98,-99.99,,,0.00,weatherlink.com 1.10,2013-02-06 13:45:00,
2013-02-06 09:00:00,65.0,64.0,30.05,ESE,117,0.0,-999.0,96,-99.99,,,0.00,weatherlink.com 1.10,2013-02-06 14:00:00,
2013-02-06 09:15:00,66.5,65.0,30.05,ESE,117,0.0,-999.0,94,-99.99,,,0.00,weatherlink.com 1.10,2013-02-06 14:15:00,
2013-02-06 09:30:00,68.7,65.0,30.05,ESE,117,0.0,-999.0,89,-99.99,,,0.00,weatherlink.com 1.10,2013-02-06 14:30:00,
2013-02-06 09:46:00,70.1,65.0,30.06,ESE,117,0.0,-999.0,85,-99.99,,,0.00,weatherlink.com 1.10,2013-02-06 14:46:00,
2013-02-06 10:00:00,71.2,66.0,30.06,ESE,117,0.0,-999.0,84,-99.99,,,0.00,weatherlink.com 1.10,2013-02-06 15:00:00,
2013-02-06 10:15:00,74.0,66.0,30.06,ESE,122,0.0,-999.0,77,-99.99,,,0.00,weatherlink.com 1.10,2013-02-06 15:15:00,
2013-02-06 10:31:00,75.6,67.0,30.06,SE,141,1.0,-999.0,74,-99.99,,,0.00,weatherlink.com 1.10,2013-02-06 15:31:00,
2013-02-06 10:46:00,75.6,66.0,30.06,SSW,198,3.0,-999.0,73,-99.99,,,0.00,weatherlink.com 1.10,2013-02-06 15:46:00,
2013-02-06 11:01:00,76.6,67.0,30.06,SE,144,0.0,-999.0,71,-99.99,,,0.00,weatherlink.com 1.10,2013-02-06 16:01:00,
2013-02-06 11:16:00,76.3,65.0,30.05,East,101,3.0,-999.0,69,-99.99,,,0.00,weatherlink.com 1.10,2013-02-06 16:16:00,
2013-02-06 11:31:00,74.3,65.0,30.05,ESE,109,4.0,-999.0,73,-99.99,,,0.00,weatherlink.com 1.10,2013-02-06 16:31:00,
2013-02-06 11:46:00,74.1,66.0,30.05,ENE,78,10.0,-999.0,75,-99.99,,,0.00,weatherlink.com 1.10,2013-02-06 16:46:00,
2013-02-06 12:01:00,74.9,66.0,30.04,ESE,111,7.0,-999.0,74,-99.99,,,0.00,weatherlink.com 1.10,2013-02-06 17:01:00,
2013-02-06 12:16:00,77.4,68.0,30.04,ESE,121,4.0,-999.0,72,-99.99,,,0.00,weatherlink.com 1.10,2013-02-06 17:16:00,
2013-02-06 12:31:00,76.6,68.0,30.04,ESE,108,7.0,-999.0,75,-99.99,,,0.00,weatherlink.com 1.10,2013-02-06 17:31:00,
2013-02-06 12:46:00,74.9,67.0,30.03,East,92,3.0,-999.0,76,-99.99,,,0.00,weatherlink.com 1.10,2013-02-06 17:46:00,
2013-02-06 13:01:00,73.4,67.0,30.03,ESE,103,4.0,-999.0,79,-99.99,,,0.00,weatherlink.com 1.10,2013-02-06 18:01:00,
2013-02-06 13:16:00,75.8,68.0,30.02,East,89,9.0,-999.0,77,-99.99,,,0.00,weatherlink.com 1.10,2013-02-06 18:16:00,
2013-02-06 13:31:00,75.7,69.0,30.02,ESE,108,2.0,-999.0,79,-99.99,,,0.00,weatherlink.com 1.10,2013-02-06 18:31:00,
2013-02-06 13:46:00,73.7,67.0,30.02,ESE,122,6.0,-999.0,80,-99.99,,,0.00,weatherlink.com 1.10,2013-02-06 18:46:00,
2013-02-06 14:01:00,73.4,67.0,30.01,ESE,105,4.0,-999.0,81,-99.99,,,0.00,weatherlink.com 1.10,2013-02-06 19:01:00,
2013-02-06 14:16:00,72.6,67.0,30.01,SE,124,5.0,-999.0,83,-99.99,,,0.00,weatherlink.com 1.10,2013-02-06 19:16:00,
2013-02-06 14:31:00,72.5,67.0,30.00,ESE,116,8.0,-999.0,83,-99.99,,,0.00,weatherlink.com 1.10,2013-02-06 19:31:00,
2013-02-06 14:46:00,72.9,68.0,30.00,ESE,123,1.0,-999.0,83,-99.99,,,0.00,weatherlink.com 1.10,2013-02-06 19:46:00,
2013-02-06 15:01:00,73.9,68.0,30.00,ESE,113,9.0,-999.0,81,-99.99,,,0.00,weatherlink.com 1.10,2013-02-06 20:01:00,
2013-02-06 15:16:00,72.9,67.0,30.00,ESE,115,7.0,-999.0,82,-99.99,,,0.00,weatherlink.com 1.10,2013-02-06 20:16:00,
2013-02-06 15:31:00,73.7,67.0,30.00,East,100,3.0,-999.0,80,-99.99,,,0.00,weatherlink.com 1.10,2013-02-06 20:31:00,
2013-02-06 15:46:00,74.1,67.0,30.00,ESE,116,5.0,-999.0,79,-99.99,,,0.00,weatherlink.com 1.10,2013-02-06 20:46:00,
2013-02-06 16:01:00,75.0,67.0,30.00,SE,124,5.0,-999.0,77,-99.99,,,0.00,weatherlink.com 1.10,2013-02-06 21:01:00,
2013-02-06 16:16:00,74.3,66.0,30.00,SE,125,2.0,-999.0,76,-99.99,,,0.00,weatherlink.com 1.10,2013-02-06 21:16:00,
2013-02-06 16:31:00,73.2,66.0,30.00,ESE,109,9.0,-999.0,79,-99.99,,,0.00,weatherlink.com 1.10,2013-02-06 21:31:00,
2013-02-06 16:46:00,72.1,67.0,30.00,ESE,115,6.0,-999.0,83,-99.99,,,0.00,weatherlink.com 1.10,2013-02-06 21:46:00,
2013-02-06 17:01:00,71.5,67.0,30.00,ESE,107,9.0,-999.0,84,-99.99,,,0.00,weatherlink.com 1.10,2013-02-06 22:01:00,
2013-02-06 17:16:00,71.0,65.0,30.00,SE,126,1.0,-999.0,81,-99.99,,,0.00,weatherlink.com 1.10,2013-02-06 22:16:00,
2013-02-06 17:31:00,70.9,65.0,30.01,ESE,109,3.0,-999.0,82,-99.99,,,0.00,weatherlink.com 1.10,2013-02-06 22:31:00,
2013-02-06 17:46:00,70.8,64.0,30.02,ESE,106,6.0,-999.0,80,-99.99,,,0.00,weatherlink.com 1.10,2013-02-06 22:46:00,
2013-02-06 18:01:00,70.6,65.0,30.02,ESE,118,7.0,-999.0,82,-99.99,,,0.00,weatherlink.com 1.10,2013-02-06 23:01:00,
2013-02-06 18:16:00,70.4,65.0,30.02,ESE,117,0.0,-999.0,82,-99.99,,,0.00,weatherlink.com 1.10,2013-02-06 23:16:00,
2013-02-06 18:31:00,70.4,64.0,30.02,ESE,111,6.0,-999.0,81,-99.99,,,0.00,weatherlink.com 1.10,2013-02-06 23:31:00,
2013-02-06 18:46:00,69.5,65.0,30.02,ESE,114,4.0,-999.0,85,-99.99,,,0.00,weatherlink.com 1.10,2013-02-06 23:46:00,
2013-02-06 19:01:00,68.5,65.0,30.02,ESE,115,3.0,-999.0,89,-99.99,,,0.01,weatherlink.com 1.10,2013-02-07 00:01:00,
2013-02-06 19:16:00,67.7,65.0,30.02,ESE,113,3.0,-999.0,91,-99.99,,,0.01,weatherlink.com 1.10,2013-02-07 00:16:00,
2013-02-06 19:31:00,68.0,65.0,30.02,ESE,119,3.0,-999.0,89,-99.99,,,0.01,weatherlink.com 1.10,2013-02-07 00:31:00,
2013-02-06 19:46:00,68.3,64.0,30.02,ESE,123,4.0,-999.0,87,-99.99,,,0.01,weatherlink.com 1.10,2013-02-07 00:46:00,
2013-02-06 20:01:00,68.7,64.0,30.02,ESE,114,5.0,-999.0,86,-99.99,,,0.01,weatherlink.com 1.10,2013-02-07 01:01:00,
2013-02-06 20:16:00,69.0,64.0,30.03,SE,130,2.0,-999.0,84,-99.99,,,0.01,weatherlink.com 1.10,2013-02-07 01:16:00,
2013-02-06 20:31:00,68.6,64.0,30.03,SE,129,4.0,-999.0,84,-99.99,,,0.01,weatherlink.com 1.10,2013-02-07 01:31:00,
2013-02-06 20:46:00,68.2,63.0,30.03,SE,128,0.0,-999.0,84,-99.99,,,0.01,weatherlink.com 1.10,2013-02-07 01:46:00,
2013-02-06 21:01:00,68.0,63.0,30.03,SE,126,4.0,-999.0,84,-99.99,,,0.01,weatherlink.com 1.10,2013-02-07 02:01:00,
2013-02-06 21:16:00,68.4,62.0,30.03,ESE,123,4.0,-999.0,81,-99.99,,,0.01,weatherlink.com 1.10,2013-02-07 02:16:00,
2013-02-06 21:31:00,68.5,63.0,30.03,SE,126,3.0,-999.0,81,-99.99,,,0.01,weatherlink.com 1.10,2013-02-07 02:31:00,
2013-02-06 21:46:00,68.4,62.0,30.03,SE,126,3.0,-999.0,81,-99.99,,,0.01,weatherlink.com 1.10,2013-02-07 02:46:00,
2013-02-06 22:01:00,68.2,63.0,30.03,SE,126,1.0,-999.0,82,-99.99,,,0.01,weatherlink.com 1.10,2013-02-07 03:01:00,
2013-02-06 22:16:00,67.8,63.0,30.03,SE,127,0.0,-999.0,83,-99.99,,,0.01,weatherlink.com 1.10,2013-02-07 03:16:00,
2013-02-06 22:31:00,67.5,63.0,30.04,SE,127,2.0,-999.0,84,-99.99,,,0.01,weatherlink.com 1.10,2013-02-07 03:31:00,
2013-02-06 22:46:00,67.4,62.0,30.04,SE,128,0.0,-999.0,84,-99.99,,,0.01,weatherlink.com 1.10,2013-02-07 03:46:00,
2013-02-06 23:01:00,68.0,63.0,30.04,SE,128,2.0,-999.0,84,-99.99,,,0.01,weatherlink.com 1.10,2013-02-07 04:01:00,
2013-02-06 23:16:00,68.4,63.0,30.04,SE,128,1.0,-999.0,83,-99.99,,,0.01,weatherlink.com 1.10,2013-02-07 04:16:00,
2013-02-06 23:31:00,68.7,63.0,30.03,SE,127,3.0,-999.0,82,-99.99,,,0.01,weatherlink.com 1.10,2013-02-07 04:31:00,
2013-02-06 23:46:00,68.9,63.0,30.03,SE,126,2.0,-999.0,81,-99.99,,,0.01,weatherlink.com 1.10,2013-02-07 04:46:00,